Year,Month,Day,Hour,Minute,Value (Times are PST for temperature in C)
2015,06,23,00,00,15.80
2015,06,23,00,01,15.80
2015,06,23,00,02,15.80
2015,06,23,00,03,15.90
2015,06,23,00,04,16.00
2015,06,23,00,05,16.10
2015,06,23,00,06,16.10
2015,06,23,00,07,16.10
2015,06,23,00,08,16.10
2015,06,23,00,09,16.10
2015,06,23,00,10,16.00
2015,06,23,00,11,15.80
2015,06,23,00,12,15.70
2015,06,23,00,13,15.60
2015,06,23,00,14,15.60
2015,06,23,00,15,15.50
2015,06,23,00,16,15.50
2015,06,23,00,17,15.50
2015,06,23,00,18,15.40
2015,06,23,00,19,15.40
2015,06,23,00,20,15.30
2015,06,23,00,21,15.20
2015,06,23,00,22,15.10
2015,06,23,00,23,15.00
2015,06,23,00,24,15.00
2015,06,23,00,25,14.90
2015,06,23,00,26,14.80
2015,06,23,00,27,14.80
2015,06,23,00,28,14.70
2015,06,23,00,29,14.70
2015,06,23,00,30,14.70
2015,06,23,00,31,14.60
2015,06,23,00,32,14.60
2015,06,23,00,33,14.60
2015,06,23,00,34,14.60
2015,06,23,00,35,14.60
2015,06,23,00,36,14.60
2015,06,23,00,37,14.60
2015,06,23,00,38,14.60
2015,06,23,00,39,14.60
2015,06,23,00,40,14.60
2015,06,23,00,41,14.60
2015,06,23,00,42,14.60
2015,06,23,00,43,14.50
2015,06,23,00,44,14.50
2015,06,23,00,45,14.50
2015,06,23,00,46,14.40
2015,06,23,00,47,14.40
2015,06,23,00,48,14.40
2015,06,23,00,49,14.40
2015,06,23,00,50,14.30
2015,06,23,00,51,14.30
2015,06,23,00,52,14.30
2015,06,23,00,53,14.30
2015,06,23,00,54,14.20
2015,06,23,00,55,14.20
2015,06,23,00,56,14.20
2015,06,23,00,57,14.20
2015,06,23,00,58,14.20
2015,06,23,00,59,14.20
2015,06,23,01,00,14.20
2015,06,23,01,01,14.20
2015,06,23,01,02,14.30
2015,06,23,01,03,14.30
2015,06,23,01,04,14.30
2015,06,23,01,05,14.30
2015,06,23,01,06,14.30
2015,06,23,01,07,14.30
2015,06,23,01,08,14.30
2015,06,23,01,09,14.20
2015,06,23,01,10,14.20
2015,06,23,01,11,14.20
2015,06,23,01,12,14.20
2015,06,23,01,13,14.20
2015,06,23,01,14,14.20
2015,06,23,01,15,14.20
2015,06,23,01,16,14.20
2015,06,23,01,17,14.30
2015,06,23,01,18,14.30
2015,06,23,01,19,14.30
2015,06,23,01,20,14.40
2015,06,23,01,21,14.40
2015,06,23,01,22,14.40
2015,06,23,01,23,14.50
2015,06,23,01,24,14.50
2015,06,23,01,25,14.50
2015,06,23,01,26,14.50
2015,06,23,01,27,14.50
2015,06,23,01,28,14.50
2015,06,23,01,29,14.40
2015,06,23,01,30,14.40
2015,06,23,01,31,14.40
2015,06,23,01,32,14.30
2015,06,23,01,33,14.20
2015,06,23,01,34,14.20
2015,06,23,01,35,14.10
2015,06,23,01,36,14.00
2015,06,23,01,37,14.00
2015,06,23,01,38,13.90
2015,06,23,01,39,13.90
2015,06,23,01,40,13.80
2015,06,23,01,41,13.80
2015,06,23,01,42,13.80
2015,06,23,01,43,13.80
2015,06,23,01,44,13.80
2015,06,23,01,45,13.80
2015,06,23,01,46,13.80
2015,06,23,01,47,13.80
2015,06,23,01,48,13.80
2015,06,23,01,49,13.70
2015,06,23,01,50,13.70
2015,06,23,01,51,13.70
2015,06,23,01,52,13.70
2015,06,23,01,53,13.70
2015,06,23,01,54,13.60
2015,06,23,01,55,13.60
2015,06,23,01,56,13.60
2015,06,23,01,57,13.50
2015,06,23,01,58,13.50
2015,06,23,01,59,13.40
2015,06,23,02,00,13.40
2015,06,23,02,01,13.30
2015,06,23,02,02,13.30
2015,06,23,02,03,13.30
2015,06,23,02,04,13.30
2015,06,23,02,05,13.20
2015,06,23,02,06,13.20
2015,06,23,02,07,13.20
2015,06,23,02,08,13.20
2015,06,23,02,09,13.10
2015,06,23,02,10,13.10
2015,06,23,02,11,13.10
2015,06,23,02,12,13.10
2015,06,23,02,13,13.10
2015,06,23,02,14,13.10
2015,06,23,02,15,13.00
2015,06,23,02,16,13.00
2015,06,23,02,17,13.00
2015,06,23,02,18,13.00
2015,06,23,02,19,13.00
2015,06,23,02,20,13.00
2015,06,23,02,21,13.00
2015,06,23,02,22,13.00
2015,06,23,02,23,13.00
2015,06,23,02,24,13.00
2015,06,23,02,25,13.00
2015,06,23,02,26,13.00
2015,06,23,02,27,13.00
2015,06,23,02,28,13.00
2015,06,23,02,29,13.00
2015,06,23,02,30,13.10
2015,06,23,02,31,13.10
2015,06,23,02,32,13.10
2015,06,23,02,33,13.20
2015,06,23,02,34,13.20
2015,06,23,02,35,13.30
2015,06,23,02,36,13.30
2015,06,23,02,37,13.30
2015,06,23,02,38,13.30
2015,06,23,02,39,13.30
2015,06,23,02,40,13.30
2015,06,23,02,41,13.30
2015,06,23,02,42,13.30
2015,06,23,02,43,13.30
2015,06,23,02,44,13.30
2015,06,23,02,45,13.20
2015,06,23,02,46,13.20
2015,06,23,02,47,13.20
2015,06,23,02,48,13.20
2015,06,23,02,49,13.20
2015,06,23,02,50,13.10
2015,06,23,02,51,13.10
2015,06,23,02,52,13.10
2015,06,23,02,53,13.00
2015,06,23,02,54,13.00
2015,06,23,02,55,13.00
2015,06,23,02,56,13.00
2015,06,23,02,57,13.00
2015,06,23,02,58,12.90
2015,06,23,02,59,12.90
2015,06,23,03,00,12.90
2015,06,23,03,01,12.90
2015,06,23,03,02,12.90
2015,06,23,03,03,12.90
2015,06,23,03,04,12.90
2015,06,23,03,05,12.90
2015,06,23,03,06,12.90
2015,06,23,03,07,12.90
2015,06,23,03,08,12.90
2015,06,23,03,09,12.90
2015,06,23,03,10,12.90
2015,06,23,03,11,12.90
2015,06,23,03,12,12.90
2015,06,23,03,13,12.90
2015,06,23,03,14,12.90
2015,06,23,03,15,12.90
2015,06,23,03,16,12.90
2015,06,23,03,17,12.80
2015,06,23,03,18,12.80
2015,06,23,03,19,12.80
2015,06,23,03,20,12.80
2015,06,23,03,21,12.80
2015,06,23,03,22,12.80
2015,06,23,03,23,12.80
2015,06,23,03,24,12.80
2015,06,23,03,25,12.80
2015,06,23,03,26,12.80
2015,06,23,03,27,12.80
2015,06,23,03,28,12.80
2015,06,23,03,29,12.80
2015,06,23,03,30,12.80
2015,06,23,03,31,12.80
2015,06,23,03,32,12.70
2015,06,23,03,33,12.70
2015,06,23,03,34,12.70
2015,06,23,03,35,12.70
2015,06,23,03,36,12.60
2015,06,23,03,37,12.60
2015,06,23,03,38,12.60
2015,06,23,03,39,12.60
2015,06,23,03,40,12.50
2015,06,23,03,41,12.50
2015,06,23,03,42,12.50
2015,06,23,03,43,12.50
2015,06,23,03,44,12.50
2015,06,23,03,45,12.50
2015,06,23,03,46,12.50
2015,06,23,03,47,12.50
2015,06,23,03,48,12.50
2015,06,23,03,49,12.40
2015,06,23,03,50,12.40
2015,06,23,03,51,12.40
2015,06,23,03,52,12.40
2015,06,23,03,53,12.40
2015,06,23,03,54,12.40
2015,06,23,03,55,12.40
2015,06,23,03,56,12.40
2015,06,23,03,57,12.30
2015,06,23,03,58,12.30
2015,06,23,03,59,12.30
2015,06,23,04,00,12.30
2015,06,23,04,01,12.30
2015,06,23,04,02,12.30
2015,06,23,04,03,12.30
2015,06,23,04,04,12.30
2015,06,23,04,05,12.30
2015,06,23,04,06,12.30
2015,06,23,04,07,12.30
2015,06,23,04,08,12.30
2015,06,23,04,09,12.30
2015,06,23,04,10,12.30
2015,06,23,04,11,12.30
2015,06,23,04,12,12.30
2015,06,23,04,13,12.30
2015,06,23,04,14,12.30
2015,06,23,04,15,12.30
2015,06,23,04,16,12.30
2015,06,23,04,17,12.30
2015,06,23,04,18,12.30
2015,06,23,04,19,12.30
2015,06,23,04,20,12.30
2015,06,23,04,21,12.20
2015,06,23,04,22,12.20
2015,06,23,04,23,12.20
2015,06,23,04,24,12.20
2015,06,23,04,25,12.20
2015,06,23,04,26,12.10
2015,06,23,04,27,12.10
2015,06,23,04,28,12.10
2015,06,23,04,29,12.10
2015,06,23,04,30,12.10
2015,06,23,04,31,12.00
2015,06,23,04,32,12.00
2015,06,23,04,33,12.00
2015,06,23,04,34,12.00
2015,06,23,04,35,11.90
2015,06,23,04,36,11.90
2015,06,23,04,37,11.90
2015,06,23,04,38,11.90
2015,06,23,04,39,11.90
2015,06,23,04,40,11.90
2015,06,23,04,41,11.90
2015,06,23,04,42,11.90
2015,06,23,04,43,11.90
2015,06,23,04,44,11.90
2015,06,23,04,45,11.90
2015,06,23,04,46,11.90
2015,06,23,04,47,11.90
2015,06,23,04,48,11.90
2015,06,23,04,49,11.90
2015,06,23,04,50,11.90
2015,06,23,04,51,11.80
2015,06,23,04,52,11.80
2015,06,23,04,53,11.90
2015,06,23,04,54,11.90
2015,06,23,04,55,11.90
2015,06,23,04,56,11.90
2015,06,23,04,57,11.90
2015,06,23,04,58,11.90
2015,06,23,04,59,11.90
2015,06,23,05,00,11.90
2015,06,23,05,01,11.90
2015,06,23,05,02,11.90
2015,06,23,05,03,11.90
2015,06,23,05,04,11.90
2015,06,23,05,05,11.90
2015,06,23,05,06,11.90
2015,06,23,05,07,11.80
2015,06,23,05,08,11.80
2015,06,23,05,09,11.80
2015,06,23,05,10,11.80
2015,06,23,05,11,11.80
2015,06,23,05,12,11.80
2015,06,23,05,13,11.80
2015,06,23,05,14,11.80
2015,06,23,05,15,11.80
2015,06,23,05,16,11.80
2015,06,23,05,17,11.80
2015,06,23,05,18,11.80
2015,06,23,05,19,11.80
2015,06,23,05,20,11.80
2015,06,23,05,21,11.70
2015,06,23,05,22,11.70
2015,06,23,05,23,11.70
2015,06,23,05,24,11.60
2015,06,23,05,25,11.60
2015,06,23,05,26,11.60
2015,06,23,05,27,11.60
2015,06,23,05,28,11.60
2015,06,23,05,29,11.60
2015,06,23,05,30,11.60
2015,06,23,05,31,11.60
2015,06,23,05,32,11.60
2015,06,23,05,33,11.60
2015,06,23,05,34,11.60
2015,06,23,05,35,11.60
2015,06,23,05,36,11.60
2015,06,23,05,37,11.40
2015,06,23,05,38,11.40
2015,06,23,05,39,11.50
2015,06,23,05,40,11.60
2015,06,23,05,41,11.50
2015,06,23,05,42,11.40
2015,06,23,05,43,11.40
2015,06,23,05,44,11.40
2015,06,23,05,45,11.40
2015,06,23,05,46,11.40
2015,06,23,05,47,11.40
2015,06,23,05,48,11.40
2015,06,23,05,49,11.40
2015,06,23,05,50,11.40
2015,06,23,05,51,11.40
2015,06,23,05,52,11.40
2015,06,23,05,53,11.40
2015,06,23,05,54,11.50
2015,06,23,05,55,11.60
2015,06,23,05,56,11.60
2015,06,23,05,57,11.60
2015,06,23,05,58,11.60
2015,06,23,05,59,11.60
2015,06,23,06,00,11.60
2015,06,23,06,01,11.60
2015,06,23,06,02,11.60
2015,06,23,06,03,11.60
2015,06,23,06,04,11.60
2015,06,23,06,05,11.60
2015,06,23,06,06,11.70
2015,06,23,06,07,11.80
2015,06,23,06,08,11.80
2015,06,23,06,09,11.90
2015,06,23,06,10,11.90
2015,06,23,06,11,11.90
2015,06,23,06,12,11.90
2015,06,23,06,13,11.90
2015,06,23,06,14,11.90
2015,06,23,06,15,11.90
2015,06,23,06,16,11.90
2015,06,23,06,17,11.80
2015,06,23,06,18,11.80
2015,06,23,06,19,11.80
2015,06,23,06,20,11.80
2015,06,23,06,21,11.80
2015,06,23,06,22,11.90
2015,06,23,06,23,11.90
2015,06,23,06,24,11.90
2015,06,23,06,25,11.90
2015,06,23,06,26,11.90
2015,06,23,06,27,11.90
2015,06,23,06,28,11.90
2015,06,23,06,29,12.00
2015,06,23,06,30,12.00
2015,06,23,06,31,12.00
2015,06,23,06,32,12.00
2015,06,23,06,33,12.00
2015,06,23,06,34,12.00
2015,06,23,06,35,12.10
2015,06,23,06,36,12.10
2015,06,23,06,37,12.10
2015,06,23,06,38,12.10
2015,06,23,06,39,12.20
2015,06,23,06,40,12.20
2015,06,23,06,41,12.20
2015,06,23,06,42,12.20
2015,06,23,06,43,12.30
2015,06,23,06,44,12.30
2015,06,23,06,45,12.30
2015,06,23,06,46,12.30
2015,06,23,06,47,12.30
2015,06,23,06,48,12.40
2015,06,23,06,49,12.40
2015,06,23,06,50,12.50
2015,06,23,06,51,12.50
2015,06,23,06,52,12.50
2015,06,23,06,53,12.50
2015,06,23,06,54,12.50
2015,06,23,06,55,12.50
2015,06,23,06,56,12.50
2015,06,23,06,57,12.50
2015,06,23,06,58,12.60
2015,06,23,06,59,12.60
2015,06,23,07,00,12.60
2015,06,23,07,01,12.70
2015,06,23,07,02,12.70
2015,06,23,07,03,12.80
2015,06,23,07,04,12.80
2015,06,23,07,05,12.80
2015,06,23,07,06,12.80
2015,06,23,07,07,12.90
2015,06,23,07,08,12.90
2015,06,23,07,09,12.90
2015,06,23,07,10,13.00
2015,06,23,07,11,13.00
2015,06,23,07,12,13.10
2015,06,23,07,13,13.10
2015,06,23,07,14,13.20
2015,06,23,07,15,13.20
2015,06,23,07,16,13.30
2015,06,23,07,17,13.30
2015,06,23,07,18,13.40
2015,06,23,07,19,13.50
2015,06,23,07,20,13.50
2015,06,23,07,21,13.50
2015,06,23,07,22,13.40
2015,06,23,07,23,13.40
2015,06,23,07,24,13.40
2015,06,23,07,25,13.50
2015,06,23,07,26,13.50
2015,06,23,07,27,13.50
2015,06,23,07,28,13.50
2015,06,23,07,29,13.60
2015,06,23,07,30,13.60
2015,06,23,07,31,13.60
2015,06,23,07,32,13.60
2015,06,23,07,33,13.60
2015,06,23,07,34,13.60
2015,06,23,07,35,13.60
2015,06,23,07,36,13.60
2015,06,23,07,37,13.60
2015,06,23,07,38,13.60
2015,06,23,07,39,13.60
2015,06,23,07,40,13.60
2015,06,23,07,41,13.70
2015,06,23,07,42,13.70
2015,06,23,07,43,13.80
2015,06,23,07,44,13.90
2015,06,23,07,45,13.90
2015,06,23,07,46,13.90
2015,06,23,07,47,13.90
2015,06,23,07,48,13.90
2015,06,23,07,49,13.90
2015,06,23,07,50,13.90
2015,06,23,07,51,13.90
2015,06,23,07,52,14.00
2015,06,23,07,53,14.00
2015,06,23,07,54,14.00
2015,06,23,07,55,14.00
2015,06,23,07,56,14.10
2015,06,23,07,57,14.20
2015,06,23,07,58,14.30
2015,06,23,07,59,14.40
2015,06,23,08,00,14.40
2015,06,23,08,01,14.50
2015,06,23,08,02,14.50
2015,06,23,08,03,14.50
2015,06,23,08,04,14.50
2015,06,23,08,05,14.50
2015,06,23,08,06,14.40
2015,06,23,08,07,14.40
2015,06,23,08,08,14.30
2015,06,23,08,09,14.30
2015,06,23,08,10,14.20
2015,06,23,08,11,14.20
2015,06,23,08,12,14.20
2015,06,23,08,13,14.20
2015,06,23,08,14,14.20
2015,06,23,08,15,14.20
2015,06,23,08,16,14.20
2015,06,23,08,17,14.20
2015,06,23,08,18,14.30
2015,06,23,08,19,14.30
2015,06,23,08,20,14.20
2015,06,23,08,21,14.20
2015,06,23,08,22,14.20
2015,06,23,08,23,14.20
2015,06,23,08,24,14.20
2015,06,23,08,25,14.20
2015,06,23,08,26,14.30
2015,06,23,08,27,14.30
2015,06,23,08,28,14.40
2015,06,23,08,29,14.40
2015,06,23,08,30,14.50
2015,06,23,08,31,14.50
2015,06,23,08,32,14.60
2015,06,23,08,33,14.60
2015,06,23,08,34,14.60
2015,06,23,08,35,14.70
2015,06,23,08,36,14.70
2015,06,23,08,37,14.80
2015,06,23,08,38,14.80
2015,06,23,08,39,14.80
2015,06,23,08,40,14.80
2015,06,23,08,41,14.80
2015,06,23,08,42,14.80
2015,06,23,08,43,14.80
2015,06,23,08,44,14.80
2015,06,23,08,45,14.70
2015,06,23,08,46,14.70
2015,06,23,08,47,14.70
2015,06,23,08,48,14.70
2015,06,23,08,49,14.70
2015,06,23,08,50,14.70
2015,06,23,08,51,14.70
2015,06,23,08,52,14.60
2015,06,23,08,53,14.60
2015,06,23,08,54,14.60
2015,06,23,08,55,14.60
2015,06,23,08,56,14.60
2015,06,23,08,57,14.60
2015,06,23,08,58,14.60
2015,06,23,08,59,14.60
2015,06,23,09,00,14.50
2015,06,23,09,01,14.50
2015,06,23,09,02,14.50
2015,06,23,09,03,14.50
2015,06,23,09,04,14.50
2015,06,23,09,05,14.50
2015,06,23,09,06,14.40
2015,06,23,09,07,14.50
2015,06,23,09,08,14.50
2015,06,23,09,09,14.60
2015,06,23,09,10,14.60
2015,06,23,09,11,14.70
2015,06,23,09,12,14.70
2015,06,23,09,13,14.70
2015,06,23,09,14,14.80
2015,06,23,09,15,14.80
2015,06,23,09,16,14.80
2015,06,23,09,17,14.90
2015,06,23,09,18,14.90
2015,06,23,09,19,15.00
2015,06,23,09,20,15.10
2015,06,23,09,21,15.20
2015,06,23,09,22,15.30
2015,06,23,09,23,15.30
2015,06,23,09,24,15.40
2015,06,23,09,25,15.50
2015,06,23,09,26,15.50
2015,06,23,09,27,15.60
2015,06,23,09,28,15.60
2015,06,23,09,29,15.60
2015,06,23,09,30,15.70
2015,06,23,09,31,15.70
2015,06,23,09,32,15.70
2015,06,23,09,33,15.80
2015,06,23,09,34,15.70
2015,06,23,09,35,15.70
2015,06,23,09,36,15.80
2015,06,23,09,37,15.80
2015,06,23,09,38,15.80
2015,06,23,09,39,15.80
2015,06,23,09,40,15.90
2015,06,23,09,41,16.10
2015,06,23,09,42,16.10
2015,06,23,09,43,16.10
2015,06,23,09,44,16.10
2015,06,23,09,45,16.10
2015,06,23,09,46,16.20
2015,06,23,09,47,16.20
2015,06,23,09,48,16.30
2015,06,23,09,49,16.40
2015,06,23,09,50,16.40
2015,06,23,09,51,16.50
2015,06,23,09,52,16.60
2015,06,23,09,53,16.60
2015,06,23,09,54,16.70
2015,06,23,09,55,16.70
2015,06,23,09,56,16.70
2015,06,23,09,57,16.70
2015,06,23,09,58,16.70
2015,06,23,09,59,16.70
2015,06,23,10,00,16.80
2015,06,23,10,01,16.90
2015,06,23,10,02,16.90
2015,06,23,10,03,17.00
2015,06,23,10,04,17.10
2015,06,23,10,05,17.10
2015,06,23,10,06,17.20
2015,06,23,10,07,17.30
2015,06,23,10,08,17.30
2015,06,23,10,09,17.30
2015,06,23,10,10,17.30
2015,06,23,10,11,17.30
2015,06,23,10,12,17.30
2015,06,23,10,13,17.30
2015,06,23,10,14,17.20
2015,06,23,10,15,17.10
2015,06,23,10,16,17.00
2015,06,23,10,17,16.90
2015,06,23,10,18,16.90
2015,06,23,10,19,16.90
2015,06,23,10,20,16.80
2015,06,23,10,21,16.70
2015,06,23,10,22,16.70
2015,06,23,10,23,16.70
2015,06,23,10,24,16.80
2015,06,23,10,25,16.80
2015,06,23,10,26,16.80
2015,06,23,10,27,16.80
2015,06,23,10,28,16.90
2015,06,23,10,29,17.00
2015,06,23,10,30,17.20
2015,06,23,10,31,17.30
2015,06,23,10,32,17.40
2015,06,23,10,33,17.40
2015,06,23,10,34,17.50
2015,06,23,10,35,17.60
2015,06,23,10,36,17.60
2015,06,23,10,37,17.60
2015,06,23,10,38,17.70
2015,06,23,10,39,17.90
2015,06,23,10,40,18.00
2015,06,23,10,41,18.10
2015,06,23,10,42,18.20
2015,06,23,10,43,18.20
2015,06,23,10,44,18.30
2015,06,23,10,45,18.30
2015,06,23,10,46,18.20
2015,06,23,10,47,18.30
2015,06,23,10,48,18.20
2015,06,23,10,49,18.20
2015,06,23,10,50,18.20
2015,06,23,10,51,18.20
2015,06,23,10,52,18.20
2015,06,23,10,53,18.20
2015,06,23,10,54,18.20
2015,06,23,10,55,18.10
2015,06,23,10,56,17.90
2015,06,23,10,57,17.80
2015,06,23,10,58,17.70
2015,06,23,10,59,17.70
2015,06,23,11,00,17.70
2015,06,23,11,01,17.70
2015,06,23,11,02,17.70
2015,06,23,11,03,17.70
2015,06,23,11,04,17.80
2015,06,23,11,05,17.90
2015,06,23,11,06,18.00
2015,06,23,11,07,18.20
2015,06,23,11,08,18.20
2015,06,23,11,09,18.20
2015,06,23,11,10,18.20
2015,06,23,11,11,18.20
2015,06,23,11,12,18.20
2015,06,23,11,13,18.20
2015,06,23,11,14,18.10
2015,06,23,11,15,18.10
2015,06,23,11,16,18.20
2015,06,23,11,17,18.20
2015,06,23,11,18,18.20
2015,06,23,11,19,18.20
2015,06,23,11,20,18.30
2015,06,23,11,21,18.50
2015,06,23,11,22,18.60
2015,06,23,11,23,18.60
2015,06,23,11,24,18.80
2015,06,23,11,25,18.80
2015,06,23,11,26,18.80
2015,06,23,11,27,18.60
2015,06,23,11,28,18.50
2015,06,23,11,29,18.30
2015,06,23,11,30,18.20
2015,06,23,11,31,18.20
2015,06,23,11,32,18.40
2015,06,23,11,33,18.50
2015,06,23,11,34,18.70
2015,06,23,11,35,18.80
2015,06,23,11,36,18.90
2015,06,23,11,37,18.90
2015,06,23,11,38,19.00
2015,06,23,11,39,19.10
2015,06,23,11,40,19.20
2015,06,23,11,41,19.30
2015,06,23,11,42,19.40
2015,06,23,11,43,19.30
2015,06,23,11,44,19.10
2015,06,23,11,45,19.10
2015,06,23,11,46,19.10
2015,06,23,11,47,19.20
2015,06,23,11,48,19.30
2015,06,23,11,49,19.40
2015,06,23,11,50,19.40
2015,06,23,11,51,19.40
2015,06,23,11,52,19.30
2015,06,23,11,53,19.20
2015,06,23,11,54,19.10
2015,06,23,11,55,19.00
2015,06,23,11,56,18.90
2015,06,23,11,57,19.00
2015,06,23,11,58,19.10
2015,06,23,11,59,19.10
2015,06,23,12,00,19.10
2015,06,23,12,01,19.10
2015,06,23,12,02,19.10
2015,06,23,12,03,19.00
2015,06,23,12,04,18.90
2015,06,23,12,05,18.90
2015,06,23,12,06,18.90
2015,06,23,12,07,18.90
2015,06,23,12,08,19.00
2015,06,23,12,09,19.10
2015,06,23,12,10,19.10
2015,06,23,12,11,19.10
2015,06,23,12,12,19.10
2015,06,23,12,13,19.20
2015,06,23,12,14,19.20
2015,06,23,12,15,19.40
2015,06,23,12,16,19.50
2015,06,23,12,17,19.60
2015,06,23,12,18,19.60
2015,06,23,12,19,19.70
2015,06,23,12,20,19.60
2015,06,23,12,21,19.50
2015,06,23,12,22,19.40
2015,06,23,12,23,19.30
2015,06,23,12,24,19.30
2015,06,23,12,25,19.30
2015,06,23,12,26,19.40
2015,06,23,12,27,19.50
2015,06,23,12,28,19.40
2015,06,23,12,29,19.30
2015,06,23,12,30,19.30
2015,06,23,12,31,19.50
2015,06,23,12,32,19.50
2015,06,23,12,33,19.50
2015,06,23,12,34,19.50
2015,06,23,12,35,19.50
2015,06,23,12,36,19.60
2015,06,23,12,37,19.60
2015,06,23,12,38,19.50
2015,06,23,12,39,19.60
2015,06,23,12,40,19.50
2015,06,23,12,41,19.40
2015,06,23,12,42,19.30
2015,06,23,12,43,19.40
2015,06,23,12,44,19.40
2015,06,23,12,45,19.30
2015,06,23,12,46,19.20
2015,06,23,12,47,19.10
2015,06,23,12,48,19.10
2015,06,23,12,49,19.20
2015,06,23,12,50,19.30
2015,06,23,12,51,19.50
2015,06,23,12,52,19.60
2015,06,23,12,53,19.70
2015,06,23,12,54,19.70
2015,06,23,12,55,19.80
2015,06,23,12,56,19.80
2015,06,23,12,57,19.80
2015,06,23,12,58,19.70
2015,06,23,12,59,19.70
2015,06,23,13,00,19.70
2015,06,23,13,01,19.60
2015,06,23,13,02,19.50
2015,06,23,13,03,19.50
2015,06,23,13,04,19.40
2015,06,23,13,05,19.40
2015,06,23,13,06,19.40
2015,06,23,13,07,19.40
2015,06,23,13,08,19.40
2015,06,23,13,09,19.40
2015,06,23,13,10,19.40
2015,06,23,13,11,19.50
2015,06,23,13,12,19.50
2015,06,23,13,13,19.50
2015,06,23,13,14,19.60
2015,06,23,13,15,19.80
2015,06,23,13,16,19.60
2015,06,23,13,17,19.50
2015,06,23,13,18,19.40
2015,06,23,13,19,19.30
2015,06,23,13,20,19.30
2015,06,23,13,21,19.40
2015,06,23,13,22,19.30
2015,06,23,13,23,19.10
2015,06,23,13,24,18.80
2015,06,23,13,25,18.40
2015,06,23,13,26,17.90
2015,06,23,13,27,17.60
2015,06,23,13,28,17.40
2015,06,23,13,29,17.20
2015,06,23,13,30,17.10
2015,06,23,13,31,16.90
2015,06,23,13,32,16.90
2015,06,23,13,33,16.80
2015,06,23,13,34,16.90
2015,06,23,13,35,16.90
2015,06,23,13,36,16.80
2015,06,23,13,37,16.70
2015,06,23,13,38,16.90
2015,06,23,13,39,17.00
2015,06,23,13,40,17.00
2015,06,23,13,41,17.00
2015,06,23,13,42,16.90
2015,06,23,13,43,17.00
2015,06,23,13,44,16.90
2015,06,23,13,45,16.70
2015,06,23,13,46,16.70
2015,06,23,13,47,16.70
2015,06,23,13,48,16.70
2015,06,23,13,49,16.70
2015,06,23,13,50,16.60
2015,06,23,13,51,16.50
2015,06,23,13,52,16.50
2015,06,23,13,53,16.50
2015,06,23,13,54,16.40
2015,06,23,13,55,16.40
2015,06,23,13,56,16.40
2015,06,23,13,57,16.30
2015,06,23,13,58,16.30
2015,06,23,13,59,16.20
2015,06,23,14,00,16.10
2015,06,23,14,01,16.20
2015,06,23,14,02,16.20
2015,06,23,14,03,16.20
2015,06,23,14,04,16.20
2015,06,23,14,05,16.30
2015,06,23,14,06,16.40
2015,06,23,14,07,16.50
2015,06,23,14,08,16.60
2015,06,23,14,09,16.60
2015,06,23,14,10,16.60
2015,06,23,14,11,16.60
2015,06,23,14,12,16.70
2015,06,23,14,13,16.70
2015,06,23,14,14,16.80
2015,06,23,14,15,17.00
2015,06,23,14,16,17.00
2015,06,23,14,17,17.00
2015,06,23,14,18,17.10
2015,06,23,14,19,17.30
2015,06,23,14,20,17.30
2015,06,23,14,21,17.20
2015,06,23,14,22,16.90
2015,06,23,14,23,16.80
2015,06,23,14,24,16.90
2015,06,23,14,25,17.00
2015,06,23,14,26,17.20
2015,06,23,14,27,17.40
2015,06,23,14,28,17.40
2015,06,23,14,29,17.30
2015,06,23,14,30,17.40
2015,06,23,14,31,17.60
2015,06,23,14,32,17.60
2015,06,23,14,33,17.60
2015,06,23,14,34,17.80
2015,06,23,14,35,18.00
2015,06,23,14,36,18.00
2015,06,23,14,37,17.90
2015,06,23,14,38,17.90
2015,06,23,14,39,17.80
2015,06,23,14,40,17.70
2015,06,23,14,41,17.70
2015,06,23,14,42,17.70
2015,06,23,14,43,17.70
2015,06,23,14,44,17.60
2015,06,23,14,45,17.50
2015,06,23,14,46,17.40
2015,06,23,14,47,17.40
2015,06,23,14,48,17.50
2015,06,23,14,49,17.80
2015,06,23,14,50,17.90
2015,06,23,14,51,18.00
2015,06,23,14,52,18.20
2015,06,23,14,53,18.30
2015,06,23,14,54,18.40
2015,06,23,14,55,18.30
2015,06,23,14,56,18.30
2015,06,23,14,57,18.30
2015,06,23,14,58,18.30
2015,06,23,14,59,18.40
2015,06,23,15,00,18.50
2015,06,23,15,01,18.50
2015,06,23,15,02,18.50
2015,06,23,15,03,18.50
2015,06,23,15,04,18.40
2015,06,23,15,05,18.40
2015,06,23,15,06,18.40
2015,06,23,15,07,18.40
2015,06,23,15,08,18.30
2015,06,23,15,09,18.10
2015,06,23,15,10,18.00
2015,06,23,15,11,17.90
2015,06,23,15,12,17.80
2015,06,23,15,13,17.80
2015,06,23,15,14,17.90
2015,06,23,15,15,17.90
2015,06,23,15,16,17.90
2015,06,23,15,17,17.70
2015,06,23,15,18,17.70
2015,06,23,15,19,17.60
2015,06,23,15,20,17.60
2015,06,23,15,21,17.50
2015,06,23,15,22,17.40
2015,06,23,15,23,17.40
2015,06,23,15,24,17.50
2015,06,23,15,25,17.50
2015,06,23,15,26,17.50
2015,06,23,15,27,17.50
2015,06,23,15,28,17.50
2015,06,23,15,29,17.50
2015,06,23,15,30,17.60
2015,06,23,15,31,17.70
2015,06,23,15,32,17.70
2015,06,23,15,33,17.80
2015,06,23,15,34,18.00
2015,06,23,15,35,18.20
2015,06,23,15,36,18.30
2015,06,23,15,37,18.50
2015,06,23,15,38,18.70
2015,06,23,15,39,18.90
2015,06,23,15,40,19.10
2015,06,23,15,41,19.20
2015,06,23,15,42,19.20
2015,06,23,15,43,19.10
2015,06,23,15,44,19.10
2015,06,23,15,45,19.10
2015,06,23,15,46,19.10
2015,06,23,15,47,19.10
2015,06,23,15,48,19.00
2015,06,23,15,49,18.80
2015,06,23,15,50,18.60
2015,06,23,15,51,18.40
2015,06,23,15,52,18.30
2015,06,23,15,53,18.20
2015,06,23,15,54,18.20
2015,06,23,15,55,18.30
2015,06,23,15,56,18.30
2015,06,23,15,57,18.20
2015,06,23,15,58,18.10
2015,06,23,15,59,18.10
2015,06,23,16,00,18.10
2015,06,23,16,01,17.90
2015,06,23,16,02,17.90
2015,06,23,16,03,17.80
2015,06,23,16,04,17.70
2015,06,23,16,05,17.50
2015,06,23,16,06,17.50
2015,06,23,16,07,17.40
2015,06,23,16,08,17.30
2015,06,23,16,09,17.30
2015,06,23,16,10,17.30
2015,06,23,16,11,17.40
2015,06,23,16,12,17.50
2015,06,23,16,13,17.50
2015,06,23,16,14,17.50
2015,06,23,16,15,17.60
2015,06,23,16,16,17.60
2015,06,23,16,17,17.50
2015,06,23,16,18,17.40
2015,06,23,16,19,17.30
2015,06,23,16,20,17.30
2015,06,23,16,21,17.20
2015,06,23,16,22,17.20
2015,06,23,16,23,17.20
2015,06,23,16,24,17.10
2015,06,23,16,25,17.10
2015,06,23,16,26,16.90
2015,06,23,16,27,16.90
2015,06,23,16,28,16.90
2015,06,23,16,29,16.90
2015,06,23,16,30,16.90
2015,06,23,16,31,16.90
2015,06,23,16,32,16.90
2015,06,23,16,33,17.10
2015,06,23,16,34,17.20
2015,06,23,16,35,17.10
2015,06,23,16,36,17.30
2015,06,23,16,37,17.30
2015,06,23,16,38,17.30
2015,06,23,16,39,17.30
2015,06,23,16,40,17.20
2015,06,23,16,41,17.10
2015,06,23,16,42,17.10
2015,06,23,16,43,17.00
2015,06,23,16,44,17.00
2015,06,23,16,45,16.90
2015,06,23,16,46,16.80
2015,06,23,16,47,16.70
2015,06,23,16,48,16.70
2015,06,23,16,49,16.60
2015,06,23,16,50,16.50
2015,06,23,16,51,16.30
2015,06,23,16,52,16.20
2015,06,23,16,53,16.10
2015,06,23,16,54,16.10
2015,06,23,16,55,16.20
2015,06,23,16,56,16.20
2015,06,23,16,57,16.20
2015,06,23,16,58,16.30
2015,06,23,16,59,16.30
2015,06,23,17,00,16.40
2015,06,23,17,01,16.40
2015,06,23,17,02,16.30
2015,06,23,17,03,16.30
2015,06,23,17,04,16.30
2015,06,23,17,05,16.30
2015,06,23,17,06,16.20
2015,06,23,17,07,16.00
2015,06,23,17,08,15.90
2015,06,23,17,09,15.80
2015,06,23,17,10,15.60
2015,06,23,17,11,15.60
2015,06,23,17,12,15.70
2015,06,23,17,13,15.60
2015,06,23,17,14,15.60
2015,06,23,17,15,15.60
2015,06,23,17,16,15.60
2015,06,23,17,17,15.70
2015,06,23,17,18,15.80
2015,06,23,17,19,15.90